Home   Weather   Raleigh   Past weeks

Flag for USA Past Weather in Raleigh, North Carolina, USA — Yesterday and Last 2 Weeks

Now
59 °F

Passing clouds.


Feels Like: 60 °F
Forecast: 56 / 78 °F
Wind: 3 mph from East

Location: Raleigh-Durham International Airport

Current Time: Feb 22, 2017 at 10:02:18 pm

Latest Report: Feb 22, 2017 at 8:51 pm


Visibility: 10 mi

Pressure: 29.94 "Hg

Humidity: 81%

Dew Point: 53 °F

Location of RaleighLocation

Past Weather in Raleigh — Graph

°F

Raleigh Temperature Yesterday

Maximum temperature yesterday: 65 °F (at 1:51 pm)
Minimum temperature yesterday: 45 °F (at 5:51 am)
Average temperature yesterday: 55 °F

High & Low Weather Summary for the Past Weeks

 TemperatureHumidityPressure
High82 °F (Feb 12, 1:51 pm)97% (Feb 8, 2:04 am)30.50 "Hg (Feb 8, 2:04 am)
Low27 °F (Feb 10, 2:51 am)11% (Feb 13, 3:51 pm)29.50 "Hg (Feb 9, 2:51 am)
Average54 °F50%29.96 "Hg
* Reported Feb 7 8:51 pm — Feb 22 8:51 pm, Raleigh, Weather by CustomWeather, © 2017

Note: Actual official high and low records may vary slightly from our data, if they occured in-between our weather recording intervals... More about our weather records

Advertising

Raleigh Weather History for the Previous 24 Hours

Scroll right to see more
 ConditionsComfort  
Time TempWeatherWind HumidityBarometerVisibility
8:51 pm
Wed, Feb 22
59 °FPassing clouds.3 mph81%29.94 "Hg10 mi
7:51 pm62 °FPartly cloudy.3 mph73%29.94 "Hg10 mi
6:51 pm64 °FMostly cloudy.5 mph68%29.93 "Hg10 mi
5:51 pm66 °FMostly cloudy.5 mph61%29.93 "Hg10 mi
4:51 pm69 °FCloudy.No wind49%29.93 "Hg10 mi
3:51 pm70 °FMostly cloudy.3 mph47%29.92 "Hg10 mi
2:51 pm70 °FCloudy.No wind49%29.93 "Hg10 mi
1:51 pm69 °FCloudy.3 mph55%29.95 "Hg10 mi
12:51 pm68 °FMostly cloudy.6 mph57%29.97 "Hg10 mi
11:51 am68 °FMostly cloudy.10 mph57%29.99 "Hg10 mi
10:51 am66 °FCloudy.8 mph61%30.02 "Hg10 mi
9:51 am64 °FPartly sunny.7 mph65%30.02 "Hg10 mi
8:51 am57 °FBroken clouds.No wind74%30.04 "Hg10 mi
7:51 am54 °FPartly sunny.No wind83%30.05 "Hg10 mi
6:51 am53 °FPartly cloudy.3 mph83%30.03 "Hg10 mi
5:51 am52 °FPassing clouds.No wind86%30.03 "Hg10 mi
4:51 am52 °FPassing clouds.9 mph83%30.02 "Hg10 mi
3:51 am52 °FPartly cloudy.6 mph83%30.03 "Hg10 mi
2:51 am53 °FPassing clouds.3 mph80%30.04 "Hg10 mi
1:51 am54 °FPassing clouds.5 mph77%30.06 "Hg10 mi
12:51 am54 °FPartly cloudy.6 mph74%30.08 "Hg10 mi
11:51 pm
Tue, Feb 21
55 °FPassing clouds.9 mph69%30.09 "Hg10 mi
10:51 pm54 °FPartly cloudy.5 mph62%30.12 "Hg10 mi
Weather by CustomWeather, © 2017

See weather overviewHow to use our weather pages